GW1601 Weather Reports


time (UTC)temp
C
wind
direction
speed
KPH
gust
KPH
rain 1hr
cm
rain 24hr
cm
rain mn
cm
humidity
%
barometer
mb
20260510164545 19 332 0.0 8.0 0.00 0.00 0.03 68 991.1
20260510163944 18 40 3.2 6.4 0.00 0.00 0.03 71 991.1
20260510162725 18 214 0.0 9.7 0.00 0.00 0.03 72 991.1
20260510161529 17 44 3.2 6.4 0.00 0.00 0.03 75 991.1
20260510160950 16 339 0.0 9.7 0.00 0.00 0.03 77 991.1
20260510155736 16 33 1.6 4.8 0.00 0.00 0.03 82 991.1
20260510155150 16 25 0.0 8.0 0.00 0.00 0.03 82 990.8
20260510154523 16 219 4.8 8.0 0.00 0.00 0.03 85 990.8
20260510153949 16 268 0.0 4.8 0.00 0.00 0.03 85 990.8
20260510153322 15 318 3.2 11.3 0.00 0.00 0.03 85 990.5
20260510152733 15 230 1.6 8.0 0.00 0.00 0.03 86 990.5
20260510152149 15 225 3.2 6.4 0.00 0.00 0.03 88 990.1
20260510151535 15 256 1.6 6.4 0.00 0.00 0.03 87 990.1
20260510150914 15 195 0.0 14.5 0.00 0.00 0.03 88 990.1
20260510150339 15 216 3.2 8.0 0.00 0.00 0.03 92 990.1
20260510145717 15 6 3.2 8.0 0.00 0.00 0.03 91 989.8
20260510145138 15 151 4.8 9.7 0.00 0.00 0.03 91 989.8
20260510144510 14 28 1.6 6.4 0.00 0.00 0.03 91 989.5
20260510143926 15 39 0.0 6.4 0.00 0.00 0.03 92 989.5
20260510143335 14 37 3.2 4.8 0.00 0.00 0.03 92 989.5
20260510142713 14 143 4.8 4.8 0.00 0.00 0.03 94 989.5
20260510142128 14 3 3.2 4.8 0.00 0.00 0.03 94 989.8
20260510140929 14 55 0.0 6.4 0.00 0.00 0.03 95 989.5
20260510135715 14 75 0.0 3.2 0.00 0.00 0.03 96 989.8
20260510135116 13 186 0.0 4.8 0.00 0.00 0.03 94 990.1
20260510134511 13 163 1.6 3.2 0.00 0.00 0.03 94 989.8
20260510133348 14 6 0.0 3.2 0.00 0.00 0.00 91 989.5
20260510132749 14 215 6.4 9.7 0.00 0.00 0.00 89 989.5
20260510131517 14 235 0.0 3.2 0.00 0.00 0.00 92 989.1
20260510130920 13 153 1.6 4.8 0.00 0.00 0.00 96 988.8
20260510130331 13 16 1.6 8.0 0.00 0.00 0.00 99 989.1
20260510125751 13 126 1.6 3.2 0.00 0.00 0.00 99 988.8
20260510125144 13 203 1.6 3.2 0.00 0.00 0.00 99 989.1
20260510123308 12 58 1.6 4.8 0.00 0.00 0.00 99 988.8
20260510122730 12 198 0.0 3.2 0.00 0.00 0.00 99 988.4
20260510122134 11 178 3.2 4.8 0.00 0.00 0.00 99 988.4
20260510121511 11 28 0.0 3.2 0.00 0.00 0.00 99 988.4
20260510120949 11 130 1.6 3.2 0.00 0.00 0.00 99 988.4
20260510115743 11 132 1.6 3.2 0.00 0.00 0.00 99 988.4
20260510114518 11 23 0.0 3.2 0.00 0.00 0.00 99 988.4
20260510113914 11 154 3.2 3.2 0.00 0.00 0.00 99 988.1
20260510112710 10 164 0.0 3.2 0.00 0.00 0.00 99 987.8
20260510112131 10 146 0.0 3.2 0.00 0.00 0.00 99 987.8
20260510111532 10 143 0.0 3.2 0.00 0.00 0.00 99 987.8
20260510110933 10 60 1.6 3.2 0.00 0.00 0.00 99 987.8
20260510110312 10 108 0.0 3.2 0.00 0.00 0.00 99 987.4
20260510105747 10 167 1.6 3.2 0.00 0.00 0.00 99 987.4
20260510105143 10 162 1.6 3.2 0.00 0.00 0.00 99 987.1
20260510103935 10 353 0.0 3.2 0.00 0.00 0.00 99 986.7
20260510103324 10 164 0.0 3.2 0.00 0.00 0.00 99 986.4
20260510102717 10 151 1.6 3.2 0.00 0.00 0.00 99 986.7
20260510102142 10 168 1.6 3.2 0.00 0.00 0.00 99 986.4
20260510101511 10 192 1.6 3.2 0.00 0.00 0.00 99 986.4
20260510100351 9 168 0.0 3.2 0.00 0.00 0.00 99 986.4
20260510095710 9 161 1.6 3.2 0.00 0.00 0.00 99 986.4
20260510095139 9 141 0.0 3.2 0.00 0.00 0.00 99 986.1
20260510094539 9 157 0.0 3.2 0.00 0.00 0.00 99 986.1
20260510093908 9 147 0.0 3.2 0.00 0.00 0.00 99 985.7
20260510093327 10 205 0.0 3.2 0.00 0.00 0.00 99 985.7
20260510092725 10 89 0.0 3.2 0.00 0.00 0.00 99 985.7
20260510092129 10 161 1.6 3.2 0.00 0.00 0.00 99 985.4
20260510091537 10 178 3.2 4.8 0.00 0.00 0.00 99 985.4
20260510090909 10 133 0.0 3.2 0.00 0.00 0.00 99 985.7
20260510090341 10 172 1.6 4.8 0.00 0.00 0.00 99 985.4
20260510085716 10 173 0.0 4.8 0.00 0.00 0.00 99 985.4
20260510083948 10 164 1.6 4.8 0.00 0.00 0.00 99 985.1
20260510083352 10 140 1.6 3.2 0.00 0.00 0.00 99 985.1
20260510082744 10 117 0.0 3.2 0.00 0.00 0.00 99 985.1
20260510082119 10 223 1.6 3.2 0.00 0.00 0.00 99 985.1
20260510081549 10 203 1.6 4.8 0.00 0.00 0.00 99 984.7
20260510080918 10 158 1.6 4.8 0.00 0.00 0.00 99 985.1
20260510080327 10 74 0.0 1.6 0.00 0.00 0.00 99 985.1
20260510075750 10 169 3.2 4.8 0.00 0.00 0.00 99 985.1
20260510074542 10 55 0.0 3.2 0.00 0.00 0.00 99 985.1
20260510073942 10 141 0.0 3.2 0.00 0.00 0.00 99 985.1
20260510073347 10 141 1.6 4.8 0.00 0.00 0.00 99 985.1
20260510072734 10 135 0.0 3.2 0.00 0.00 0.00 99 985.1
20260510072126 10 140 0.0 3.2 0.00 0.00 0.00 99 984.7
20260510071546 10 156 0.0 3.2 0.00 0.00 0.00 99 985.1
20260510070925 10 146 0.0 4.8 0.00 0.00 0.00 99 985.1
20260510070312 10 150 3.2 6.4 0.00 0.00 0.00 99 985.1
20260510065734 10 4 1.6 4.8 0.00 0.00 0.00 99 985.4
20260510065141 10 185 3.2 4.8 0.00 0.00 0.00 99 985.1
20260510063923 10 141 0.0 3.2 0.00 0.00 0.00 99 985.1
20260510063330 10 161 0.0 4.8 0.00 0.00 0.00 99 985.1
20260510062709 10 310 0.0 3.2 0.00 0.00 0.00 99 985.1
20260510062146 10 299 0.0 3.2 0.00 0.00 0.00 99 985.1
20260510061534 10 178 0.0 4.8 0.00 0.00 0.00 99 985.1
20260510060949 10 109 1.6 3.2 0.00 0.00 0.00 99 985.1
20260510060341 11 215 0.0 3.2 0.00 0.00 0.00 99 985.1
20260510055725 11 127 0.0 6.4 0.00 0.00 0.00 99 985.1
20260510055118 11 197 1.6 4.8 0.00 0.00 0.00 99 985.4
20260510054538 11 133 0.0 3.2 0.00 0.00 0.00 99 985.1
20260510053314 11 207 1.6 3.2 0.00 0.00 0.00 99 985.1
20260510052149 11 171 0.0 3.2 0.00 0.00 0.00 98 985.1
20260510051548 11 249 0.0 3.2 0.00 0.00 0.00 98 985.1
20260510050912 11 186 0.0 3.2 0.00 0.00 0.00 98 985.1
20260510050332 11 171 0.0 3.2 0.00 0.00 0.00 98 985.1
20260510045721 11 159 0.0 1.6 0.00 0.00 0.00 98 985.1
20260510045110 11 206 1.6 3.2 0.00 0.00 0.00 98 985.1
20260510043931 11 164 1.6 3.2 0.00 0.00 0.00 97 985.1
20260510043338 11 228 1.6 3.2 0.00 0.00 0.00 97 985.1
20260510042711 11 196 1.6 4.8 0.00 0.00 0.00 97 984.7
20260510042145 11 214 1.6 3.2 0.00 0.00 0.00 97 984.7
20260510041533 11 81 0.0 4.8 0.00 0.00 0.00 97 984.7
20260510040924 11 135 0.0 4.8 0.00 0.00 0.00 97 984.7
20260510040343 11 155 1.6 3.2 0.00 0.00 0.00 97 984.7
20260510035747 11 301 0.0 3.2 0.00 0.00 0.64 97 984.7
20260510035123 11 178 1.6 4.8 0.00 0.00 0.64 97 984.7
20260510034541 11 25 0.0 3.2 0.00 0.00 0.64 97 984.7
20260510033910 11 182 3.2 4.8 0.00 0.00 0.64 97 984.7
20260510033316 11 167 0.0 3.2 0.00 0.00 0.64 96 984.7
20260510032752 11 151 0.0 4.8 0.00 0.00 0.64 96 984.7
20260510032147 11 243 1.6 3.2 0.00 0.00 0.64 96 984.7
20260510031524 11 44 0.0 3.2 0.00 0.00 0.64 96 984.7
20260510030919 12 168 1.6 3.2 0.00 0.00 0.64 95 984.7
20260510030328 12 203 1.6 3.2 0.00 0.00 0.64 95 984.7
20260510025732 12 185 0.0 3.2 0.00 0.00 0.64 95 984.4
20260510025123 12 89 0.0 3.2 0.00 0.00 0.64 94 984.4
20260510023940 12 44 0.0 3.2 0.00 0.00 0.64 94 984.4
20260510022739 12 190 1.6 4.8 0.00 0.00 0.64 93 984.0
20260510021510 12 186 0.0 1.6 0.00 0.00 0.64 91 984.4
20260510020952 12 155 0.0 3.2 0.00 0.00 0.64 90 984.0
20260510015740 13 166 0.0 1.6 0.00 0.00 0.64 89 984.0
20260510015143 13 191 0.0 3.2 0.00 0.00 0.64 88 984.0
20260510014511 13 165 0.0 3.2 0.00 0.00 0.64 87 984.0
20260510013946 13 197 0.0 3.2 0.00 0.00 0.64 86 983.7
20260510012725 14 198 1.6 3.2 0.00 0.00 0.64 83 983.7
20260510012131 15 157 0.0 1.6 0.00 0.00 0.64 81 983.7
20260510011556 15 173 0.0 3.2 0.00 0.00 0.64 80 983.4
20260510010951 15 322 0.0 3.2 0.00 0.00 0.64 78 983.4
20260510010348 15 205 0.0 3.2 0.00 0.00 0.64 77 983.4
20260510005143 16 214 0.0 3.2 0.00 0.00 0.64 73 983.0
20260510004550 16 175 0.0 3.2 0.00 0.00 0.64 72 983.0
20260510003307 17 151 0.0 3.2 0.00 0.00 0.64 69 982.7
20260510002716 17 256 0.0 3.2 0.00 0.00 0.64 69 982.7
20260510001511 18 346 1.6 3.2 0.00 0.00 0.64 65 982.3
20260510000943 18 197 1.6 4.8 0.00 0.00 0.64 64 982.7
20260510000349 19 220 0.0 3.2 0.00 0.00 0.64 63 982.3
20260509235710 19 269 0.0 3.2 0.00 0.00 0.64 62 982.3
20260509235126 19 213 0.0 1.6 0.00 0.00 0.64 63 982.3
20260509234543 20 44 0.0 3.2 0.00 0.00 0.64 62 982.3
20260509233949 20 246 0.0 4.8 0.00 0.00 0.64 62 982.3
20260509233339 20 303 1.6 8.0 0.00 0.00 0.64 59 982.3
20260509232130 20 176 0.0 3.2 0.00 0.00 0.64 60 982.3
20260509231509 20 272 1.6 4.8 0.00 0.00 0.64 58 982.3
20260509230951 20 149 0.0 4.8 0.00 0.00 0.64 59 982.3
20260509230332 20 45 3.2 8.0 0.00 0.00 0.64 57 982.3
20260509225146 21 94 1.6 4.8 0.00 0.00 0.64 57 982.3
20260509224535 21 283 3.2 6.4 0.00 0.00 0.64 57
20260509223928 21 195 3.2 11.3 0.00 0.00 0.64 56
20260509223343 22 276 6.4 8.0 0.00 0.00 0.64 53 982.3
20260509222130 22 258 6.4 19.3 0.00 0.00 0.64 51 982.3
20260509220918 23 226 4.8 9.7 0.00 0.00 0.64 50 982.3
20260509220325 23 339 1.6 16.1 0.00 0.00 0.64 52 982.3
20260509215723 23 234 6.4 8.0 0.00 0.00 0.64 50 982.3
20260509215134 23 255 1.6 4.8 0.00 0.00 0.64 51 982.3
20260509214520 23 243 1.6 14.5 0.00 0.00 0.64 51 982.3
20260509213335 23 332 4.8 9.7 0.00 0.00 0.64 51 982.7
20260509212739 23 216 3.2 8.0 0.00 0.00 0.64 52 982.3
20260509212145 23 67 1.6 9.7 0.00 0.00 0.64 54 982.3
20260509211542 22 165 6.4 9.7 0.00 0.00 0.64 51 982.3
20260509210931 23 260 4.8 14.5 0.00 0.00 0.64 53 982.7
20260509210318 23 205 4.8 11.3 0.00 0.00 0.64 52 982.7
20260509205747 23 226 1.6 9.7 0.00 0.00 0.64 52 982.3
20260509205134 24 33 3.2 11.3 0.00 0.00 0.64 52 982.7
20260509204537 24 327 3.2 4.8 0.00 0.00 0.64 50 982.7
20260509203950 23 205 1.6 8.0 0.00 0.00 0.64 51 982.7
20260509203321 22 241 6.4 8.0 0.00 0.00 0.64 57 982.7
20260509202753 22 202 3.2 8.0 0.00 0.00 0.64 55 983.0
20260509202126 22 244 3.2 6.4 0.00 0.00 0.64 54 983.0
20260509201532 23 343 0.0 12.9 0.00 0.00 0.64 55 983.4
20260509200939 22 205 3.2 14.5 0.00 0.00 0.64 57 983.0
20260509200309 22 250 4.8 6.4 0.00 0.00 0.64 56 983.0
20260509195125 22 253 3.2 8.0 0.00 0.00 0.64 56 983.4
20260509193915 21 338 3.2 6.4 0.00 0.00 0.64 59 983.7
20260509193337 22 223 8.0 9.7 0.00 0.00 0.64 57 983.7
20260509192748 21 237 1.6 6.4 0.00 0.00 0.64 61 983.7
20260509191528 22 217 4.8 16.1 0.00 0.00 0.64 55 983.4
20260509190313 21 258 3.2 11.3 0.00 0.00 0.64 59 983.4
20260509185750 21 209 3.2 6.4 0.00 0.00 0.64 62 983.7
20260509185114 20 212 8.0 11.3 0.00 0.00 0.64 66 983.4
20260509184531 21 320 4.8 8.0 0.00 0.00 0.64 62 983.7
20260509183936 22 260 6.4 12.9 0.00 0.00 0.64 56 983.7
20260509183343 21 281 3.2 6.4 0.00 0.00 0.64 62 983.7
20260509182727 21 293 1.6 9.7 0.00 0.00 0.64 62 983.4
20260509182153 21 310 3.2 11.3 0.00 0.00 0.64 62 983.7
20260509181515 20 214 6.4 9.7 0.00 0.00 0.64 63 984.0
20260509180942 20 276 0.0 6.4 0.00 0.00 0.64 67 983.7
20260509180315 20 48 1.6 8.0 0.00 0.00 0.64 63 984.0
20260509175737 20 233 1.6 9.7 0.00 0.00 0.64 64 984.0
20260509175152 20 306 1.6 6.4 0.00 0.00 0.64 69 984.0
20260509174526 20 272 1.6 9.7 0.00 0.00 0.64 64 984.4
20260509173310 20 130 0.0 11.3 0.00 0.00 0.64 66 984.0
20260509172726 21 260 3.2 11.3 0.00 0.00 0.64 64 984.0
20260509171510 20 333 1.6 14.5 0.00 0.00 0.64 70 984.0
20260509170921 20 232 11.3 14.5 0.00 0.00 0.64 65 984.0
20260509170323 20 217 3.2 17.7 0.00 0.00 0.64 69 984.0
20260509165719 20 322 3.2 6.4 0.00 0.00 0.64 73 984.0
20260509165132 20 165 3.2 8.0 0.00 0.00 0.64 73 983.7